This demonstration page uses our WeatherBlox Daily Observations layout. Learn more.

38.80484, -77.04692

Hourly Observations for August 3, 2019

Temp ( °F °C ) Dew Point ( °F °C ) Humidity (%) Winds ( mph kmh ) Pressure ( in mb ) Visibility ( mi km ) Precip ( " mm )
12:52 am 00:52 Mostly Cloudy 76 24.4 71 21.7 85 85 S 7 11 30.06 1018 10 16.09344 0 0
1:52 am 01:52 Partly Cloudy 76 24.4 70 21.1 82 82 S 6 9 30.06 1018 10 16.09344 0 0
2:52 am 02:52 Partly Cloudy 76 24.4 71 21.7 85 85 SSE 6 9 30.03 1017 10 16.09344 0 0
4:52 am 04:52 Partly Cloudy 75 23.9 71 21.7 88 88 Calm 30.03 1017 10 16.09344 0 0
5:52 am 05:52 Mostly Clear 74 23.3 70 21.1 88 88 SSW 5 7 30.03 1017 10 16.09344 0 0
6:52 am 06:52 Mostly Sunny 74 23.3 71 21.7 91 91 Calm 30.03 1017 10 16.09344 0 0
7:36 am 07:36 Mostly Sunny 76 24.4 72 22.2 88 88 S 3 6 30.06 1018 10 16.09344 0 0
7:38 am 07:38 Mostly Cloudy 76 24.4 72 22.2 88 88 Calm 30.06 1018 10 16.09344 0 0
7:52 am 07:52 Mostly Cloudy 76 24.4 72 22.2 88 88 S 3 6 30.03 1017 10 16.09344 0 0
8:52 am 08:52 Partly Cloudy 78 25.6 70 21.1 76 76 SSE 3 6 30.03 1017 10 16.09344 0 0
9:52 am 09:52 Partly Cloudy 81 27.2 67 19.4 62 62 S 5 7 30.03 1017 10 16.09344 0 0
10:52 am 10:52 Partly Cloudy 84 28.9 68 20 59 59 VRB 3 6 30.03 1017 10 16.09344 0 0
11:52 am 11:52 Partly Cloudy 85 29.4 67 19.4 55 55 VRB 3 6 30 1016 10 16.09344 0 0
12:52 pm 12:52 Partly Cloudy 88 31.1 67 19.4 50 50 S 7 11 30 1016 10 16.09344 0 0
1:52 pm 13:52 Partly Cloudy 88 31.1 67 19.4 50 50 S 7 11 29.97 1015 10 16.09344 0 0
2:52 pm 14:52 Partly Cloudy 90 32.2 66 18.9 45 45 S 12 19 29.94 1014 10 16.09344 0.001 0.001
3:52 pm 15:52 Partly Cloudy 87 30.6 67 19.4 51 51 S 12 19 29.91 1013 10 16.09344 0 0
4:52 pm 16:52 Mostly Cloudy with Light Rain 89 31.7 70 21.1 53 53 S 9 15 29.91 1013 10 16.09344 0.001 0.001
5:52 pm 17:52 Partly Cloudy 86 30 68 20 55 55 E 14 22 29.91 1013 10 16.09344 0.001 0.001
6:52 pm 18:52 Partly Cloudy 85 29.4 69 20.6 59 59 SE 9 15 29.91 1013 10 16.09344 0 0
7:52 pm 19:52 Mostly Cloudy 84 28.9 70 21.1 63 63 SE 7 11 29.91 1013 10 16.09344 0 0
8:52 pm 20:52 Mostly Cloudy 82 27.8 71 21.7 69 69 SE 6 9 29.91 1013 10 16.09344 0 0
9:52 pm 21:52 Cloudy 82 27.8 70 21.1 67 67 S 8 13 29.94 1014 10 16.09344 0 0
10:52 pm 22:52 Cloudy 81 27.2 70 21.1 69 69 SSW 8 13 29.94 1014 10 16.09344 0 0
11:52 pm 23:52 Cloudy 80 26.7 70 21.1 71 71 SSW 7 11 29.94 1014 10 16.09344 0 0

Powered by AerisWeather